Location: Chuathbaluk
(61.5726°N, 159.2454°W)
Time: 23:51:04
(UTC+00:00)

Vanguard 2 Rocket - All Passes

Search period start: 05 December 2020 00:00
Search period end: 15 December 2020 00:00
Orbit: 553 x 3326 km, 32.9° (Epoch: 05 December)

Date Brightness Start Highest point End Pass type
(mag) Time Alt. Az. Time Alt. Az. Time Alt. Az.
05 Dec - 15:23:43 10° S 15:32:07 15° SE 15:40:50 10° ESE visible
05 Dec - 17:31:33 10° SSW 17:44:50 23° SSE 17:57:52 10° SE visible
05 Dec - 19:44:38 10° SW 19:58:11 23° SSW 20:10:19 10° SSE daylight
05 Dec - 22:02:18 10° WSW 22:10:35 14° SW 22:17:57 10° S daylight
06 Dec - 14:29:45 10° SE 14:32:16 10° SE 14:34:50 10° SE visible
06 Dec - 16:32:15 10° SSW 16:44:23 21° SSE 16:56:56 10° ESE visible
06 Dec - 18:43:47 10° SW 18:57:41 25° S 19:10:50 10° SE daylight
06 Dec - 20:59:20 10° WSW 21:10:38 19° SSW 21:20:43 10° S daylight
07 Dec - 15:33:48 10° S 15:44:06 18° SSE 15:55:11 10° ESE visible
07 Dec - 17:43:33 10° SW 17:57:06 25° S 18:10:44 10° SE visible
07 Dec - 19:57:30 10° WSW 20:10:24 22° SSW 20:22:18 10° SSE daylight
07 Dec - 22:18:07 10° WSW 22:22:28 11° SW 22:26:37 10° SSW daylight
08 Dec - 14:36:41 10° SSE 14:44:07 14° SE 14:52:09 10° ESE visible
08 Dec - 16:43:57 10° SSW 16:56:34 23° SSE 17:10:01 10° ESE visible
08 Dec - 18:56:25 10° SW 19:09:57 24° S 19:23:05 10° SSE daylight
08 Dec - 21:13:16 10° WSW 21:22:39 16° SW 21:31:22 10° S daylight
09 Dec - 15:45:02 10° SSW 15:56:12 21° SSE 16:08:38 10° ESE visible
09 Dec - 17:56:00 10° SW 18:09:23 25° S 18:23:12 10° SE visible
09 Dec - 20:10:50 10° WSW 20:22:32 19° SSW 20:33:39 10° S daylight
10 Dec - 14:47:00 10° S 14:56:06 17° SSE 15:06:24 10° ESE visible
10 Dec - 16:56:10 10° SW 17:08:50 24° S 17:22:41 10° SE visible
10 Dec - 19:09:28 10° WSW 19:22:09 22° SSW 19:34:50 10° SSE daylight
10 Dec - 21:28:50 10° WSW 21:34:33 12° SW 21:40:04 10° SSW daylight
11 Dec - 13:50:32 10° SSE 13:56:18 13° SE 14:02:40 10° ESE visible
11 Dec - 15:56:57 10° SSW 16:08:24 22° SSE 16:21:32 10° ESE visible
11 Dec - 18:08:49 10° SW 18:21:40 24° S 18:35:13 10° SSE visible
11 Dec - 20:24:56 10° WSW 20:34:34 16° SW 20:44:00 10° S daylight
12 Dec - 14:58:26 10° SSW 15:08:13 19° SSE 15:19:44 10° ESE visible
12 Dec - 17:08:49 10° SW 17:21:08 24° S 17:34:56 10° SE visible
12 Dec - 19:23:00 10° WSW 19:34:20 19° SSW 19:45:53 10° S daylight
13 Dec - 14:00:53 10° S 14:08:20 15° SSE 14:17:01 10° ESE visible
13 Dec - 16:09:23 10° SW 16:20:42 23° S 16:34:01 10° SE visible
13 Dec - 18:22:04 10° WSW 18:33:56 21° SSW 18:46:42 10° SSE visible
13 Dec - 20:40:45 10° WSW 20:46:31 12° SW 20:52:17 10° SSW daylight
14 Dec - 13:05:49 10° SSE 13:08:47 11° SE 13:11:57 10° SE visible
14 Dec - 15:10:34 10° SSW 15:20:28 21° SSE 15:32:31 10° SE visible
14 Dec - 17:21:51 10° SW 17:33:28 23° S 17:46:43 10° SSE visible
14 Dec - 19:37:21 10° WSW 19:46:27 16° SSW 19:55:51 10° S daylight
